Time,TemperatureF,DewpointF,PressureIn,WindDirection,WindDirectionDegrees,WindSpeedMPH,WindSpeedGustMPH,Humidity,HourlyPrecipIn,Conditions,Clouds,dailyrainin,SoftwareType,DateUTC
2013-09-05 00:01:00,59.8,55.0,29.91,SSW,200,0.0,0.0,84,0.00,,,0.00,weatherlink.com 1.10,2013-09-05 07:01:00,
2013-09-05 00:16:00,59.2,55.0,29.91,SSW,200,0.0,0.0,85,0.00,,,0.00,weatherlink.com 1.10,2013-09-05 07:16:00,
2013-09-05 00:31:00,58.5,54.0,29.90,SSW,200,0.0,0.0,86,0.00,,,0.00,weatherlink.com 1.10,2013-09-05 07:31:00,
2013-09-05 00:46:00,57.9,54.0,29.91,SSW,200,0.0,0.0,87,0.00,,,0.00,weatherlink.com 1.10,2013-09-05 07:46:00,
2013-09-05 01:01:00,57.5,54.0,29.91,SSW,200,0.0,0.0,88,0.00,,,0.00,weatherlink.com 1.10,2013-09-05 08:01:00,
2013-09-05 01:16:00,57.1,54.0,29.90,SSW,200,0.0,0.0,89,0.00,,,0.00,weatherlink.com 1.10,2013-09-05 08:16:00,
2013-09-05 01:31:00,56.9,54.0,29.89,SSW,200,0.0,0.0,89,0.00,,,0.00,weatherlink.com 1.10,2013-09-05 08:31:00,
2013-09-05 01:46:00,56.8,54.0,29.90,SSW,200,0.0,0.0,90,0.00,,,0.00,weatherlink.com 1.10,2013-09-05 08:46:00,
2013-09-05 02:01:00,56.9,54.0,29.95,SSW,200,0.0,0.0,90,0.00,,,0.00,weatherlink.com 1.10,2013-09-05 09:01:00,
2013-09-05 02:16:00,57.6,55.0,29.95,SSW,200,0.0,0.0,92,0.00,,,0.00,weatherlink.com 1.10,2013-09-05 09:16:00,
2013-09-05 02:31:00,57.8,56.0,29.93,SSW,200,0.0,0.0,94,0.00,,,0.00,weatherlink.com 1.10,2013-09-05 09:31:00,
2013-09-05 02:46:00,57.9,57.0,29.93,SSW,200,0.0,0.0,95,0.00,,,0.00,weatherlink.com 1.10,2013-09-05 09:46:00,
2013-09-05 03:01:00,57.9,57.0,29.92,SSW,200,0.0,0.0,95,0.00,,,0.00,weatherlink.com 1.10,2013-09-05 10:01:00,
2013-09-05 03:16:00,57.8,56.0,29.91,SSW,200,0.0,0.0,95,0.00,,,0.00,weatherlink.com 1.10,2013-09-05 10:16:00,
2013-09-05 03:31:00,57.7,56.0,29.90,SSW,200,0.0,0.0,95,0.00,,,0.00,weatherlink.com 1.10,2013-09-05 10:31:00,
2013-09-05 03:46:00,57.6,57.0,29.90,SSW,200,0.0,0.0,96,0.00,,,0.00,weatherlink.com 1.10,2013-09-05 10:46:00,
2013-09-05 04:01:00,57.6,57.0,29.90,SSW,200,0.0,0.0,96,0.00,,,0.00,weatherlink.com 1.10,2013-09-05 11:01:00,
2013-09-05 04:16:00,57.6,57.0,29.89,SSW,200,0.0,0.0,96,0.00,,,0.00,weatherlink.com 1.10,2013-09-05 11:16:00,
2013-09-05 04:32:00,57.5,56.0,29.88,SSW,200,0.0,0.0,96,0.01,,,0.01,weatherlink.com 1.10,2013-09-05 11:32:00,
2013-09-05 04:47:00,57.3,56.0,29.89,SSW,200,0.0,0.0,96,0.01,,,0.01,weatherlink.com 1.10,2013-09-05 11:47:00,
2013-09-05 05:02:00,57.2,56.0,29.90,SSW,200,0.0,0.0,96,0.01,,,0.01,weatherlink.com 1.10,2013-09-05 12:02:00,
2013-09-05 05:17:00,57.3,56.0,29.91,SSW,200,0.0,0.0,96,0.01,,,0.01,weatherlink.com 1.10,2013-09-05 12:17:00,
2013-09-05 05:32:00,57.4,57.0,29.92,SSW,200,0.0,0.0,97,0.00,,,0.01,weatherlink.com 1.10,2013-09-05 12:32:00,
2013-09-05 05:47:00,57.5,57.0,29.93,SSW,200,0.0,0.0,97,0.00,,,0.01,weatherlink.com 1.10,2013-09-05 12:47:00,
2013-09-05 06:02:00,57.5,57.0,29.93,SSW,200,0.0,0.0,97,0.00,,,0.01,weatherlink.com 1.10,2013-09-05 13:02:00,
2013-09-05 06:17:00,57.6,57.0,29.93,SSW,200,0.0,0.0,97,0.00,,,0.01,weatherlink.com 1.10,2013-09-05 13:17:00,
2013-09-05 06:32:00,57.6,57.0,29.93,SSW,200,0.0,0.0,97,0.00,,,0.01,weatherlink.com 1.10,2013-09-05 13:32:00,
2013-09-05 06:47:00,57.6,57.0,29.92,SSW,200,0.0,0.0,97,0.00,,,0.01,weatherlink.com 1.10,2013-09-05 13:47:00,
2013-09-05 07:02:00,57.6,57.0,29.92,SSW,200,0.0,0.0,97,0.00,,,0.01,weatherlink.com 1.10,2013-09-05 14:02:00,
2013-09-05 07:17:00,57.8,57.0,29.93,SSW,200,0.0,0.0,97,0.00,,,0.01,weatherlink.com 1.10,2013-09-05 14:17:00,
2013-09-05 07:32:00,58.3,58.0,29.92,SSW,200,0.0,0.0,98,0.00,,,0.01,weatherlink.com 1.10,2013-09-05 14:32:00,
2013-09-05 07:47:00,58.8,58.0,29.92,SSW,200,0.0,0.0,98,0.00,,,0.01,weatherlink.com 1.10,2013-09-05 14:47:00,
2013-09-05 08:02:00,59.0,59.0,29.93,SSW,200,0.0,0.0,98,0.00,,,0.01,weatherlink.com 1.10,2013-09-05 15:02:00,
2013-09-05 08:17:00,59.2,59.0,29.93,SSW,200,0.0,0.0,98,0.00,,,0.01,weatherlink.com 1.10,2013-09-05 15:17:00,
2013-09-05 08:32:00,60.1,60.0,29.93,SSW,200,0.0,0.0,98,0.00,,,0.01,weatherlink.com 1.10,2013-09-05 15:32:00,
2013-09-05 08:47:00,60.9,60.0,29.93,SSW,200,0.0,0.0,98,0.00,,,0.01,weatherlink.com 1.10,2013-09-05 15:47:00,
2013-09-05 09:02:00,61.5,61.0,29.93,SSW,200,0.0,0.0,98,0.00,,,0.01,weatherlink.com 1.10,2013-09-05 16:02:00,
2013-09-05 09:17:00,62.1,62.0,29.92,SSW,200,0.0,0.0,98,0.00,,,0.01,weatherlink.com 1.10,2013-09-05 16:17:00,
2013-09-05 09:32:00,62.6,62.0,29.92,SSW,200,0.0,0.0,98,0.00,,,0.01,weatherlink.com 1.10,2013-09-05 16:32:00,
2013-09-05 09:47:00,62.9,62.0,29.91,SSW,200,0.0,0.0,95,0.00,,,0.01,weatherlink.com 1.10,2013-09-05 16:47:00,
2013-09-05 10:02:00,63.2,62.0,29.91,ESE,113,0.0,2.0,95,0.00,,,0.01,weatherlink.com 1.10,2013-09-05 17:02:00,
2013-09-05 10:17:00,62.9,61.0,29.91,East,93,0.0,0.0,94,0.00,,,0.01,weatherlink.com 1.10,2013-09-05 17:17:00,
2013-09-05 10:32:00,63.5,61.0,29.91,East,93,0.0,0.0,91,0.00,,,0.01,weatherlink.com 1.10,2013-09-05 17:32:00,
2013-09-05 10:47:00,64.2,62.0,29.91,East,93,0.0,0.0,93,0.00,,,0.01,weatherlink.com 1.10,2013-09-05 17:47:00,
2013-09-05 11:02:00,65.4,63.0,29.91,East,93,0.0,1.0,91,0.00,,,0.01,weatherlink.com 1.10,2013-09-05 18:02:00,
2013-09-05 11:17:00,66.8,60.0,29.90,SW,236,0.0,2.0,80,0.00,,,0.01,weatherlink.com 1.10,2013-09-05 18:17:00,
2013-09-05 11:32:00,68.6,62.0,29.90,North,360,0.0,1.0,78,0.00,,,0.01,weatherlink.com 1.10,2013-09-05 18:32:00,
2013-09-05 11:47:00,69.3,62.0,29.90,WSW,256,0.0,3.0,78,0.00,,,0.01,weatherlink.com 1.10,2013-09-05 18:47:00,
2013-09-05 12:02:00,69.9,64.0,29.89,WSW,244,0.0,2.0,80,0.00,,,0.01,weatherlink.com 1.10,2013-09-05 19:02:00,
2013-09-05 12:17:00,70.6,63.0,29.89,SSE,149,0.0,0.0,78,0.00,,,0.01,weatherlink.com 1.10,2013-09-05 19:17:00,
2013-09-05 12:32:00,71.1,62.0,29.89,SSE,148,0.0,0.0,74,0.00,,,0.01,weatherlink.com 1.10,2013-09-05 19:32:00,
2013-09-05 12:47:00,71.7,63.0,29.88,SSE,148,0.0,0.0,75,0.00,,,0.01,weatherlink.com 1.10,2013-09-05 19:47:00,
2013-09-05 13:02:00,72.0,65.0,29.88,SSE,148,0.0,0.0,79,0.00,,,0.01,weatherlink.com 1.10,2013-09-05 20:02:00,
2013-09-05 13:17:00,72.2,65.0,29.88,SSE,148,0.0,0.0,79,0.00,,,0.01,weatherlink.com 1.10,2013-09-05 20:17:00,
2013-09-05 13:32:00,72.4,64.0,29.87,SSE,148,0.0,0.0,74,0.00,,,0.01,weatherlink.com 1.10,2013-09-05 20:32:00,
2013-09-05 13:47:00,73.7,62.0,29.86,SE,138,0.0,1.0,67,0.00,,,0.01,weatherlink.com 1.10,2013-09-05 20:47:00,
2013-09-05 14:03:00,75.2,62.0,29.85,South,179,0.0,1.0,63,0.00,,,0.01,weatherlink.com 1.10,2013-09-05 21:03:00,
2013-09-05 14:18:00,76.6,63.0,29.84,SSW,205,0.0,1.0,62,0.00,,,0.01,weatherlink.com 1.10,2013-09-05 21:18:00,
2013-09-05 14:33:00,77.1,64.0,29.84,SE,134,0.0,1.0,65,0.00,,,0.01,weatherlink.com 1.10,2013-09-05 21:33:00,
2013-09-05 14:48:00,75.9,63.0,29.84,SE,134,0.0,0.0,64,0.00,,,0.01,weatherlink.com 1.10,2013-09-05 21:48:00,
2013-09-05 15:03:00,75.5,65.0,29.83,SE,134,0.0,0.0,69,0.00,,,0.01,weatherlink.com 1.10,2013-09-05 22:03:00,
2013-09-05 15:18:00,75.8,65.0,29.83,SE,134,0.0,0.0,70,0.00,,,0.01,weatherlink.com 1.10,2013-09-05 22:18:00,
2013-09-05 15:33:00,76.1,63.0,29.82,SE,134,0.0,0.0,64,0.01,,,0.02,weatherlink.com 1.10,2013-09-05 22:33:00,
2013-09-05 15:48:00,75.7,66.0,29.82,SE,134,0.0,0.0,72,0.01,,,0.02,weatherlink.com 1.10,2013-09-05 22:48:00,
2013-09-05 16:03:00,74.6,65.0,29.81,SE,134,0.0,0.0,72,0.01,,,0.02,weatherlink.com 1.10,2013-09-05 23:03:00,
2013-09-05 16:18:00,74.2,65.0,29.80,SE,134,0.0,0.0,72,0.01,,,0.02,weatherlink.com 1.10,2013-09-05 23:18:00,
2013-09-05 16:33:00,74.4,63.0,29.79,SE,134,0.0,0.0,68,0.00,,,0.02,weatherlink.com 1.10,2013-09-05 23:33:00,
2013-09-05 16:48:00,75.1,64.0,29.79,SE,134,0.0,0.0,68,0.00,,,0.02,weatherlink.com 1.10,2013-09-05 23:48:00,
2013-09-05 17:03:00,74.9,65.0,29.78,SE,134,0.0,0.0,71,0.00,,,0.02,weatherlink.com 1.10,2013-09-06 00:03:00,
2013-09-05 17:18:00,74.6,65.0,29.78,SE,134,0.0,0.0,72,0.00,,,0.02,weatherlink.com 1.10,2013-09-06 00:18:00,
2013-09-05 17:33:00,74.2,65.0,29.78,SE,134,0.0,0.0,74,0.00,,,0.02,weatherlink.com 1.10,2013-09-06 00:33:00,
2013-09-05 17:48:00,73.7,66.0,29.77,SE,134,0.0,0.0,77,0.00,,,0.02,weatherlink.com 1.10,2013-09-06 00:48:00,
2013-09-05 18:03:00,73.1,66.0,29.77,SE,134,0.0,0.0,78,0.00,,,0.02,weatherlink.com 1.10,2013-09-06 01:03:00,
2013-09-05 18:18:00,72.6,66.0,29.76,SE,134,0.0,0.0,80,0.00,,,0.02,weatherlink.com 1.10,2013-09-06 01:18:00,
2013-09-05 18:33:00,71.8,66.0,29.77,SE,134,0.0,0.0,83,0.00,,,0.02,weatherlink.com 1.10,2013-09-06 01:33:00,
2013-09-05 18:48:00,71.1,65.0,29.76,SE,134,0.0,0.0,82,0.00,,,0.02,weatherlink.com 1.10,2013-09-06 01:48:00,
2013-09-05 19:03:00,70.3,65.0,29.77,SE,134,0.0,0.0,83,0.00,,,0.02,weatherlink.com 1.10,2013-09-06 02:03:00,
2013-09-05 19:18:00,69.6,65.0,29.77,SE,134,0.0,0.0,84,0.00,,,0.02,weatherlink.com 1.10,2013-09-06 02:18:00,
2013-09-05 19:33:00,68.8,64.0,29.77,SE,134,0.0,0.0,85,0.00,,,0.02,weatherlink.com 1.10,2013-09-06 02:33:00,
2013-09-05 19:48:00,68.1,64.0,29.77,SE,134,0.0,0.0,86,0.00,,,0.02,weatherlink.com 1.10,2013-09-06 02:48:00,
2013-09-05 20:03:00,67.7,64.0,29.77,SE,134,0.0,0.0,87,0.00,,,0.02,weatherlink.com 1.10,2013-09-06 03:03:00,
2013-09-05 20:18:00,67.4,64.0,29.76,SE,134,0.0,0.0,88,0.00,,,0.02,weatherlink.com 1.10,2013-09-06 03:18:00,
2013-09-05 20:33:00,67.0,63.0,29.76,SE,134,0.0,0.0,88,0.00,,,0.02,weatherlink.com 1.10,2013-09-06 03:33:00,
2013-09-05 20:48:00,66.7,63.0,29.75,ENE,64,0.0,3.0,88,0.00,,,0.02,weatherlink.com 1.10,2013-09-06 03:48:00,
2013-09-05 21:03:00,66.6,63.0,29.74,ENE,64,0.0,0.0,88,0.00,,,0.02,weatherlink.com 1.10,2013-09-06 04:03:00,
2013-09-05 21:18:00,66.4,63.0,29.74,ENE,64,0.0,0.0,89,0.00,,,0.02,weatherlink.com 1.10,2013-09-06 04:18:00,
2013-09-05 21:33:00,65.6,64.0,29.77,NNW,333,0.0,3.0,93,0.00,,,0.02,weatherlink.com 1.10,2013-09-06 04:33:00,
2013-09-05 21:48:00,64.8,63.0,29.76,SSE,168,0.0,0.0,94,0.00,,,0.02,weatherlink.com 1.10,2013-09-06 04:48:00,
2013-09-05 22:03:00,64.4,63.0,29.78,SSE,168,0.0,0.0,95,0.00,,,0.02,weatherlink.com 1.10,2013-09-06 05:03:00,
2013-09-05 22:18:00,63.5,61.0,29.85,NNW,335,0.0,9.0,91,0.00,,,0.02,weatherlink.com 1.10,2013-09-06 05:18:00,
2013-09-05 22:33:00,61.8,60.0,29.87,NNE,26,0.0,0.0,94,0.00,,,0.02,weatherlink.com 1.10,2013-09-06 05:33:00,
2013-09-05 22:48:00,61.6,60.0,29.87,NNE,25,0.0,2.0,95,0.00,,,0.02,weatherlink.com 1.10,2013-09-06 05:48:00,
2013-09-05 23:03:00,61.3,60.0,29.88,North,5,0.0,0.0,95,0.00,,,0.02,weatherlink.com 1.10,2013-09-06 06:03:00,
2013-09-05 23:18:00,60.9,60.0,29.88,North,5,0.0,0.0,95,0.00,,,0.02,weatherlink.com 1.10,2013-09-06 06:18:00,
2013-09-05 23:33:00,60.6,60.0,29.88,North,5,0.0,0.0,96,0.00,,,0.02,weatherlink.com 1.10,2013-09-06 06:33:00,
2013-09-05 23:48:00,60.5,59.0,29.89,North,5,0.0,0.0,96,0.00,,,0.02,weatherlink.com 1.10,2013-09-06 06:48:00,